AirNav   Pilot Hours Calculator
 
 396 users online  

57AZ La Cholla Airpark
Tucson, Arizona, USA

GOING TO TUCSON?


FAA INFORMATION EFFECTIVE 20 MAY 2021

Location

FAA Identifier: 57AZ
Lat/Long: 32-26-53.0218N 111-00-06.3713W
32-26.883697N 111-00.106188W
32.4480616,-111.0017698
(estimated)
Elevation: 2953 ft. / 900 m (estimated)
Variation: 12E (1985)
From city: 8 miles NW of TUCSON, AZ
Time zone: UTC -7 (year round; does not observe DST)
Zip code: 85737

Airport Operations

Airport use: Private use. Permission required prior to landing
Activation date: 04/1943
Control tower: no
ARTCC: ALBUQUERQUE CENTER
FSS: PRESCOTT FLIGHT SERVICE STATION
Attendance: ON CALL
PPR CALL (520) 297-8096.
Wind indicator: lighted
Segmented circle: no

Airport Communications

UNICOM: 122.975
WX AWOS-3 at AVQ (11 nm W): 118.375 (520-682-4104)
WX AWOS-3PT at MZJ (17 nm W): 130.375 (520-682-3519)

Nearby radio navigation aids

VOR radial/distance  VOR name  Freq  Var
TUSr336/21.6TUCSON VORTAC116.0012E

 
NDB name  Hdg/Dist  Freq  Var  ID
MARANA067/11.024512EAVQ .- ...- --.-
RYAN012/20.233812ERYN .-. -.-- -.
ROBLES027/28.922012ERBJ .-. -... .---

Airport Services

Fuel available: 100LL
Airframe service: NONE
Powerplant service: NONE

Runway Information

Runway 1/19

Dimensions: 4670 x 44 ft. / 1423 x 13 m
Surface: asphalt, in good condition
RUNWAY 1  RUNWAY 19
Latitude: 32-26.521815N32-27.245578N
Longitude: 111-00.261523W110-59.950853W
Elevation: 2887.4 ft.2953.0 ft.
Traffic pattern: leftleft
Runway heading: 008 magnetic, 020 true188 magnetic, 200 true
Displaced threshold: 250 ft.327 ft.
Obstructions: plinenone

Helipad H1

Dimensions: 44 x 44 ft. / 13 x 13 m
Surface: asphalt, in good condition
Traffic pattern: leftleft

Airport Ownership and Management from official FAA records

Ownership: Privately-owned
Owner: LA CHOLLA AIRPARK INC
1777 W. CESSNA WAY, BLDG 1
ORO VALLEY, AZ 85755-9553
Phone 520-297-8096
Manager: KEN REED
1777 W. CESSNA WAY, BLDG 1
ORO VALLEY, AZ 85755-9553
Phone 520-297-8096
FAX: SAME AS PHONE - (520) 297-8096

Airport Operational Statistics

Aircraft based on the field: 98
Single engine airplanes: 90
Multi engine airplanes: 4
Jet airplanes: 2
Helicopters: 2
    
Aircraft operations: avg 77/week *
100% local general aviation
* for 12-month period ending 31 December 1999

Additional Remarks

ROTORCRAFT USE STD LEFT-HAND TRF PATTERN TO THE ARPT. TAXI TO RWY CNTRLN AND MANEUVER WEST TO PARK, 125 FT WEST OF RWY CNTRLN. FOLLOW SIGNS TO PARKING.
MONITOR 122.975 INVOF ARPT.
FOR CD CTC TUCSON APCH AT 520-829-6121.

Instrument Procedures

There are no published instrument procedures at 57AZ.

Some nearby airports with instrument procedures:

KAVQ - Marana Regional Airport (11 nm W)
KDMA - Davis Monthan Air Force Base (18 nm S)
KTUS - Tucson International Airport (20 nm S)
KRYN - Ryan Field Airport (20 nm SW)
P08 - Coolidge Municipal Airport (36 nm NW)
 
Loc | Ops | Rwys | IFR | FBO | Links
Com | Nav | Svcs | Stats | Notes
Area around 57AZ (La Cholla Airpark)
 
Road maps at: MapQuest Bing Google
 
Aerial photo
WARNING: Photo may not be current or correct
Aerial photo of 57AZ (La Cholla Airpark)
Do you have a better or more recent aerial photo of La Cholla Airpark that you would like to share? If so, please send us your photo.

 
Sectional chart

 
Airport distance calculator
Flying to La Cholla Airpark? Find the distance to fly.

From to 57AZ

Sunrise and sunset
Times for 13-Jun-2021
 Local
(UTC-7)
 Zulu
(UTC)
Morning civil twilight04:4911:49
Sunrise05:1712:17
Sunset19:3102:31
Evening civil twilight19:5902:59

Current date and time
Zulu (UTC)  13-Jun-2021 09:48:44
Local (UTC-7)  13-Jun-2021 02:48:44
 
METAR
KAVQ 
11nm W 
130935Z AUTO 01007KT 10SM CLR 25/M10 A2981 RMK AO2 T02481102
KMZJ 
17nm W 
130930Z AUTO 11010KT 10SM CLR 24/M03 A2983 RMK AO2
KDMA 
18nm S 
130858Z AUTO 13005KT 10SM CLR 25/M11 A2986 RMK AO2 SLP060 T02541113 53003 $
KTUS 
19nm S 
130853Z 00000KT 10SM CLR 28/M11 A2988 RMK AO2 SLP056 T02831111 53002
KRYN 
20nm SW 
122345Z 34013G16KT 10SM CLR 43/M16 A2981
TAF
KDMA 
18nm S 
130600Z 1306/1412 VRB06KT 9999 SKC QNH2986INS BECMG 1321/1322 30014G20KT 9999 SKC QNH2981INS BECMG 1405/1406 VRB06KT 9999 SKC QNH2989INS TX44/1322Z TN22/1312Z
KTUS 
19nm S 
130520Z 1306/1406 15007KT P6SM FEW250 FM132000 31011G17KT P6SM FEW150 FM140300 29008KT P6SM SCT150
NOTAMs
Click for the latest NOTAMs
NOTAMs are issued by the DoD/FAA and will open in a separate window not controlled by AirNav.

 

 
 

Would you like to see your business listed on this page?

 If your business provides an interesting product or service to pilots, flight crews, aircraft, or users of the La Cholla Airpark, you should consider listing it here.  To start the listing process, click on the button below
 
Add a business
 

Other Pages about La Cholla Airpark

Official airport web site
 
Update a link
 
Copyright © AirNav, LLC. All rights reserved. Privacy Policy  Contact